Weather in San Pedro

Belize     18°59′14″N   88°55′22″W
temp.,
°C
wind,
m/s
gust,
m/s
humid.,
%
clouds,
%
prec.,
mm/h
press.,
hPa
HPBL,
m
28 july, wed
wed2800:00+23e119816 0.0 101529
03:00+22ne0010043 0.0 101319
06:00+22ne119966 0.0 101434
09:00+31ese246040 0.0 10151368
12:00+33ese445342 1.0 10131747
15:00+29e357663 3.1 1012904
18:00+25e2886100 8.0 1013352
21:00+23e189667 0.2 1014279
29 july, thu
thu2900:00+22ene189998 1.3 1014241
03:00+22sse16100100 1.6 1013219
06:00+23e1199100 1.6 101327
09:00+28e147698 0.0 1015577
12:00+33ese354892 0.2 10142035
15:00+31e245496 0.2 10131513
18:00+28ese2667100 0.2 1013609
21:00+25e188696 0.0 1015332
30 july, fri
fri3000:00+23ene1498100 0.0 1015126
03:00+23ene1110037 0.0 101433
06:00+23ene119992 0.0 101550
09:00+31e2559100 0.0 10151435
12:00+35ene354058 0.1 10142572
15:00+35ene453987 0.0 10132489
18:00+30e376083 0.0 1014785
21:00+25ese29869 0.0 1016487
31 july, sat
sat3100:00+23e139929 0.0 101678
03:00+23ene119936 0.0 101547
06:00+23ene159822 0.1 1016136
09:00+31e355419 0.0 10161553
12:00+35ese353883 0.0 10152693
15:00+34ese3442100 0.0 10131946
18:00+29se3762100 0.0 1014874
21:00+25ese2984100 0.2 1016481
1 august, sun
sun100:00+24ese149449 0.2 1016176
03:00+23e1210078 3.3 101562
06:00+23ene1499100 4.6 1016142
09:00+30ese256781 0.0 10171077
12:00+35se363279 0.2 10152414
15:00+36se3634100 0.0 10132723
18:00+30se3858100 0.0 1014738
21:00+27se297345 0.0 1016512